Location: *
(17.3280°S, 114.7300°W)
Time: 07:11:36
(UTC+00:00)

Meteor 2-10 Rocket - Pass Details

Date: 05 August 2020
Orbit: 734 x 884 km, 81.2° (Epoch: 20 September)

Event Time Altitude Azimuth Distance (km) Brightness Sun altitude
Rises 13:01:14 0° 195° (SSW) 3,204 6.4 -15.0°
Reaches altitude 10° 13:03:40 10° 201° (SSW) 2,263 5.6 -14.4°
Maximum altitude 13:08:29 47° 274° (W) 977 3.6 -13.3°
Drops below altitude 10° 13:13:15 10° 347° (NNW) 2,231 5.9 -12.2°
Sets 13:15:38 0° 352° (N) 3,153 6.8 -11.7°
